owner,sensor,date,latitude,longitude,air_temperature,qcFlag 
LOOP,urn:ioos:station:wmo:lopl1:1,2017-07-01T00:00:00Z,28.8850,-90.0250,28.1,1111122 
LOOP,urn:ioos:station:wmo:lopl1:1,2017-07-01T00:15:00Z,28.8850,-90.0250,27.6,1111122 
LOOP,urn:ioos:station:wmo:lopl1:1,2017-07-01T00:24:00Z,28.8850,-90.0250,27.9,1111122 
LOOP,urn:ioos:station:wmo:lopl1:1,2017-07-01T00:30:00Z,28.8850,-90.0250,27.3,1111122 
LOOP,urn:ioos:station:wmo:lopl1:1,2017-07-01T00:45:00Z,28.8850,-90.0250,26.8,1111122 
LOOP,urn:ioos:station:wmo:lopl1:1,2017-07-01T01:00:00Z,28.8850,-90.0250,26.7,1111122 
LOOP,urn:ioos:station:wmo:lopl1:1,2017-07-01T01:15:00Z,28.8850,-90.0250,26.8,1111122 
LOOP,urn:ioos:station:wmo:lopl1:1,2017-07-01T01:24:00Z,28.8850,-90.0250,27.8,1111122 
LOOP,urn:ioos:station:wmo:lopl1:1,2017-07-01T01:30:00Z,28.8850,-90.0250,27.1,1111122 
LOOP,urn:ioos:station:wmo:lopl1:1,2017-07-01T01:45:00Z,28.8850,-90.0250,27.0,1111122 
LOOP,urn:ioos:station:wmo:lopl1:1,2017-07-01T02:00:00Z,28.8850,-90.0250,27.1,1111122 
LOOP,urn:ioos:station:wmo:lopl1:1,2017-07-01T02:15:00Z,28.8850,-90.0250,27.0,1111122 
LOOP,urn:ioos:station:wmo:lopl1:1,2017-07-01T02:24:00Z,28.8850,-90.0250,27.7,11111222 
LOOP,urn:ioos:station:wmo:lopl1:1,2017-07-01T02:30:00Z,28.8850,-90.0250,26.9,1111122 
LOOP,urn:ioos:station:wmo:lopl1:1,2017-07-01T02:45:00Z,28.8850,-90.0250,26.7,1111122 
LOOP,urn:ioos:station:wmo:lopl1:1,2017-07-01T03:00:00Z,28.8850,-90.0250,26.6,1111122 
LOOP,urn:ioos:station:wmo:lopl1:1,2017-07-01T03:15:00Z,28.8850,-90.0250,26.7,1111122 
LOOP,urn:ioos:station:wmo:lopl1:1,2017-07-01T03:24:00Z,28.8850,-90.0250,27.6,11111222 
LOOP,urn:ioos:station:wmo:lopl1:1,2017-07-01T03:30:00Z,28.8850,-90.0250,26.8,1111122 
LOOP,urn:ioos:station:wmo:lopl1:1,2017-07-01T03:45:00Z,28.8850,-90.0250,26.4,1111122 
LOOP,urn:ioos:station:wmo:lopl1:1,2017-07-01T04:00:00Z,28.8850,-90.0250,26.3,1111122 
LOOP,urn:ioos:station:wmo:lopl1:1,2017-07-01T04:15:00Z,28.8850,-90.0250,26.2,1111122 
LOOP,urn:ioos:station:wmo:lopl1:1,2017-07-01T04:24:00Z,28.8850,-90.0250,27.5,1111122 
LOOP,urn:ioos:station:wmo:lopl1:1,2017-07-01T04:30:00Z,28.8850,-90.0250,26.0,1111122 
LOOP,urn:ioos:station:wmo:lopl1:1,2017-07-01T04:45:00Z,28.8850,-90.0250,25.9,1111122 
LOOP,urn:ioos:station:wmo:lopl1:1,2017-07-01T05:00:00Z,28.8850,-90.0250,25.5,1111122 
LOOP,urn:ioos:station:wmo:lopl1:1,2017-07-01T05:15:00Z,28.8850,-90.0250,25.8,1111122 
LOOP,urn:ioos:station:wmo:lopl1:1,2017-07-01T05:24:00Z,28.8850,-90.0250,27.5,1111122 
LOOP,urn:ioos:station:wmo:lopl1:1,2017-07-01T05:30:00Z,28.8850,-90.0250,25.7,1111122 
LOOP,urn:ioos:station:wmo:lopl1:1,2017-07-01T05:45:00Z,28.8850,-90.0250,25.8,1111122 
LOOP,urn:ioos:station:wmo:lopl1:1,2017-07-01T06:00:00Z,28.8850,-90.0250,25.2,1111122 
LOOP,urn:ioos:station:wmo:lopl1:1,2017-07-01T06:15:00Z,28.8850,-90.0250,25.2,1111122 
LOOP,urn:ioos:station:wmo:lopl1:1,2017-07-01T06:24:00Z,28.8850,-90.0250,27.3,1111122 
LOOP,urn:ioos:station:wmo:lopl1:1,2017-07-01T06:30:00Z,28.8850,-90.0250,24.7,1111122 
LOOP,urn:ioos:station:wmo:lopl1:1,2017-07-01T06:45:00Z,28.8850,-90.0250,24.8,1111122 
LOOP,urn:ioos:station:wmo:lopl1:1,2017-07-01T07:00:00Z,28.8850,-90.0250,25.0,1111122 
LOOP,urn:ioos:station:wmo:lopl1:1,2017-07-01T07:15:00Z,28.8850,-90.0250,24.7,1111122 
LOOP,urn:ioos:station:wmo:lopl1:1,2017-07-01T07:24:00Z,28.8850,-90.0250,27.2,1111122 
LOOP,urn:ioos:station:wmo:lopl1:1,2017-07-01T07:30:00Z,28.8850,-90.0250,24.9,1111122 
LOOP,urn:ioos:station:wmo:lopl1:1,2017-07-01T07:45:00Z,28.8850,-90.0250,25.2,1111122 
LOOP,urn:ioos:station:wmo:lopl1:1,2017-07-01T08:00:00Z,28.8850,-90.0250,25.5,1111122 
LOOP,urn:ioos:station:wmo:lopl1:1,2017-07-01T08:15:00Z,28.8850,-90.0250,25.8,1111122 
LOOP,urn:ioos:station:wmo:lopl1:1,2017-07-01T08:24:00Z,28.8850,-90.0250,27.0,1111122 
LOOP,urn:ioos:station:wmo:lopl1:1,2017-07-01T08:30:00Z,28.8850,-90.0250,26.2,1111122 
LOOP,urn:ioos:station:wmo:lopl1:1,2017-07-01T08:45:00Z,28.8850,-90.0250,26.2,1111122 
LOOP,urn:ioos:station:wmo:lopl1:1,2017-07-01T09:00:00Z,28.8850,-90.0250,26.1,1111122 
LOOP,urn:ioos:station:wmo:lopl1:1,2017-07-01T09:15:00Z,28.8850,-90.0250,26.0,1111122 
LOOP,urn:ioos:station:wmo:lopl1:1,2017-07-01T09:24:00Z,28.8850,-90.0250,27.0,1111122 
LOOP,urn:ioos:station:wmo:lopl1:1,2017-07-01T09:30:00Z,28.8850,-90.0250,26.1,1111122 
LOOP,urn:ioos:station:wmo:lopl1:1,2017-07-01T09:45:00Z,28.8850,-90.0250,26.1,1111122 
LOOP,urn:ioos:station:wmo:lopl1:1,2017-07-01T10:00:00Z,28.8850,-90.0250,26.2,1111122 
LOOP,urn:ioos:station:wmo:lopl1:1,2017-07-01T10:15:00Z,28.8850,-90.0250,26.4,1111122 
LOOP,urn:ioos:station:wmo:lopl1:1,2017-07-01T10:24:00Z,28.8850,-90.0250,26.9,1111122 
LOOP,urn:ioos:station:wmo:lopl1:1,2017-07-01T10:30:00Z,28.8850,-90.0250,26.4,1111122 
LOOP,urn:ioos:station:wmo:lopl1:1,2017-07-01T10:45:00Z,28.8850,-90.0250,26.2,1111122 
LOOP,urn:ioos:station:wmo:lopl1:1,2017-07-01T11:00:00Z,28.8850,-90.0250,26.2,1111122 
LOOP,urn:ioos:station:wmo:lopl1:1,2017-07-01T11:15:00Z,28.8850,-90.0250,25.3,1111122 
LOOP,urn:ioos:station:wmo:lopl1:1,2017-07-01T11:29:00Z,28.8850,-90.0250,26.9,1111122 
LOOP,urn:ioos:station:wmo:lopl1:1,2017-07-01T11:30:00Z,28.8850,-90.0250,25.3,1111122 
LOOP,urn:ioos:station:wmo:lopl1:1,2017-07-01T11:45:00Z,28.8850,-90.0250,25.1,1111122 
LOOP,urn:ioos:station:wmo:lopl1:1,2017-07-01T12:00:00Z,28.8850,-90.0250,25.5,1111122 
LOOP,urn:ioos:station:wmo:lopl1:1,2017-07-01T12:15:00Z,28.8850,-90.0250,25.1,1111122 
LOOP,urn:ioos:station:wmo:lopl1:1,2017-07-01T12:29:00Z,28.8850,-90.0250,27.4,1111122 
LOOP,urn:ioos:station:wmo:lopl1:1,2017-07-01T12:30:00Z,28.8850,-90.0250,25.5,1111122 
LOOP,urn:ioos:station:wmo:lopl1:1,2017-07-01T12:45:00Z,28.8850,-90.0250,25.6,1111122 
LOOP,urn:ioos:station:wmo:lopl1:1,2017-07-01T13:00:00Z,28.8850,-90.0250,25.7,1111122 
LOOP,urn:ioos:station:wmo:lopl1:1,2017-07-01T13:15:00Z,28.8850,-90.0250,26.0,1111122 
LOOP,urn:ioos:station:wmo:lopl1:1,2017-07-01T13:29:00Z,28.8850,-90.0250,27.4,1111122 
LOOP,urn:ioos:station:wmo:lopl1:1,2017-07-01T13:30:00Z,28.8850,-90.0250,26.4,1111122 
LOOP,urn:ioos:station:wmo:lopl1:1,2017-07-01T13:45:00Z,28.8850,-90.0250,26.4,1111122 
LOOP,urn:ioos:station:wmo:lopl1:1,2017-07-01T14:00:00Z,28.8850,-90.0250,26.8,1111122 
LOOP,urn:ioos:station:wmo:lopl1:1,2017-07-01T14:15:00Z,28.8850,-90.0250,26.9,1111122 
LOOP,urn:ioos:station:wmo:lopl1:1,2017-07-01T14:29:00Z,28.8850,-90.0250,27.3,1111122 
LOOP,urn:ioos:station:wmo:lopl1:1,2017-07-01T14:30:00Z,28.8850,-90.0250,27.1,1111122 
LOOP,urn:ioos:station:wmo:lopl1:1,2017-07-01T14:45:00Z,28.8850,-90.0250,27.3,1111122 
LOOP,urn:ioos:station:wmo:lopl1:1,2017-07-01T15:00:00Z,28.8850,-90.0250,28.1,1111122 
LOOP,urn:ioos:station:wmo:lopl1:1,2017-07-01T15:15:00Z,28.8850,-90.0250,28.3,1111122 
LOOP,urn:ioos:station:wmo:lopl1:1,2017-07-01T15:29:00Z,28.8850,-90.0250,27.3,1111122 
LOOP,urn:ioos:station:wmo:lopl1:1,2017-07-01T15:30:00Z,28.8850,-90.0250,28.6,1111122 
LOOP,urn:ioos:station:wmo:lopl1:1,2017-07-01T15:45:00Z,28.8850,-90.0250,28.7,1111122 
LOOP,urn:ioos:station:wmo:lopl1:1,2017-07-01T16:00:00Z,28.8850,-90.0250,28.9,1111122 
LOOP,urn:ioos:station:wmo:lopl1:1,2017-07-01T16:15:00Z,28.8850,-90.0250,29.2,1111122 
LOOP,urn:ioos:station:wmo:lopl1:1,2017-07-01T16:29:00Z,28.8850,-90.0250,27.3,1111122 
LOOP,urn:ioos:station:wmo:lopl1:1,2017-07-01T16:30:00Z,28.8850,-90.0250,29.1,1111122 
LOOP,urn:ioos:station:wmo:lopl1:1,2017-07-01T16:45:00Z,28.8850,-90.0250,29.3,1111122 
LOOP,urn:ioos:station:wmo:lopl1:1,2017-07-01T17:00:00Z,28.8850,-90.0250,29.1,1111122 
LOOP,urn:ioos:station:wmo:lopl1:1,2017-07-01T17:15:00Z,28.8850,-90.0250,29.1,1111122 
LOOP,urn:ioos:station:wmo:lopl1:1,2017-07-01T17:29:00Z,28.8850,-90.0250,27.5,1111122 
LOOP,urn:ioos:station:wmo:lopl1:1,2017-07-01T17:30:00Z,28.8850,-90.0250,29.3,1111122 
LOOP,urn:ioos:station:wmo:lopl1:1,2017-07-01T17:45:00Z,28.8850,-90.0250,29.3,1111122 
LOOP,urn:ioos:station:wmo:lopl1:1,2017-07-01T18:00:00Z,28.8850,-90.0250,29.4,1111122 
LOOP,urn:ioos:station:wmo:lopl1:1,2017-07-01T18:15:00Z,28.8850,-90.0250,29.5,1111122 
LOOP,urn:ioos:station:wmo:lopl1:1,2017-07-01T18:29:00Z,28.8850,-90.0250,27.7,1111122 
LOOP,urn:ioos:station:wmo:lopl1:1,2017-07-01T18:30:00Z,28.8850,-90.0250,29.5,1111122 
LOOP,urn:ioos:station:wmo:lopl1:1,2017-07-01T18:45:00Z,28.8850,-90.0250,29.5,1111122 
LOOP,urn:ioos:station:wmo:lopl1:1,2017-07-01T19:00:00Z,28.8850,-90.0250,29.6,1111122 
LOOP,urn:ioos:station:wmo:lopl1:1,2017-07-01T19:15:00Z,28.8850,-90.0250,29.8,1111122 
LOOP,urn:ioos:station:wmo:lopl1:1,2017-07-01T19:29:00Z,28.8850,-90.0250,28.0,1111122 
LOOP,urn:ioos:station:wmo:lopl1:1,2017-07-01T19:30:00Z,28.8850,-90.0250,29.7,1111122 
LOOP,urn:ioos:station:wmo:lopl1:1,2017-07-01T19:45:00Z,28.8850,-90.0250,29.6,1111122 
LOOP,urn:ioos:station:wmo:lopl1:1,2017-07-01T20:00:00Z,28.8850,-90.0250,29.6,1111122 
LOOP,urn:ioos:station:wmo:lopl1:1,2017-07-01T20:15:00Z,28.8850,-90.0250,29.6,1111122 
LOOP,urn:ioos:station:wmo:lopl1:1,2017-07-01T20:29:00Z,28.8850,-90.0250,28.2,1111122 
LOOP,urn:ioos:station:wmo:lopl1:1,2017-07-01T20:30:00Z,28.8850,-90.0250,29.5,1111122 
LOOP,urn:ioos:station:wmo:lopl1:1,2017-07-01T20:45:00Z,28.8850,-90.0250,29.5,1111122 
LOOP,urn:ioos:station:wmo:lopl1:1,2017-07-01T21:00:00Z,28.8850,-90.0250,29.8,1111122 
LOOP,urn:ioos:station:wmo:lopl1:1,2017-07-01T21:15:00Z,28.8850,-90.0250,29.9,1111122 
LOOP,urn:ioos:station:wmo:lopl1:1,2017-07-01T21:29:00Z,28.8850,-90.0250,28.3,1111122 
LOOP,urn:ioos:station:wmo:lopl1:1,2017-07-01T21:30:00Z,28.8850,-90.0250,30.4,1111122 
LOOP,urn:ioos:station:wmo:lopl1:1,2017-07-01T21:45:00Z,28.8850,-90.0250,30.3,1111122 
LOOP,urn:ioos:station:wmo:lopl1:1,2017-07-01T22:00:00Z,28.8850,-90.0250,30.5,1111122 
LOOP,urn:ioos:station:wmo:lopl1:1,2017-07-01T22:15:00Z,28.8850,-90.0250,30.2,1111122 
LOOP,urn:ioos:station:wmo:lopl1:1,2017-07-01T22:29:00Z,28.8850,-90.0250,28.3,1111122 
LOOP,urn:ioos:station:wmo:lopl1:1,2017-07-01T22:30:00Z,28.8850,-90.0250,30.2,1111122 
LOOP,urn:ioos:station:wmo:lopl1:1,2017-07-01T22:45:00Z,28.8850,-90.0250,30.3,1111122 
LOOP,urn:ioos:station:wmo:lopl1:1,2017-07-01T23:00:00Z,28.8850,-90.0250,27.9,1111122 
LOOP,urn:ioos:station:wmo:lopl1:1,2017-07-01T23:15:00Z,28.8850,-90.0250,25.9,1111122 
LOOP,urn:ioos:station:wmo:lopl1:1,2017-07-01T23:29:00Z,28.8850,-90.0250,28.2,11111222 
LOOP,urn:ioos:station:wmo:lopl1:1,2017-07-01T23:30:00Z,28.8850,-90.0250,25.7,1111122 
LOOP,urn:ioos:station:wmo:lopl1:1,2017-07-01T23:45:00Z,28.8850,-90.0250,24.6,1111122 
LOOP,urn:ioos:station:wmo:lopl1:1,2017-07-02T00:00:00Z,28.8850,-90.0250,25.0,1111122 
LOOP,urn:ioos:station:wmo:lopl1:1,2017-07-02T00:15:00Z,28.8850,-90.0250,24.2,1111122 
LOOP,urn:ioos:station:wmo:lopl1:1,2017-07-02T00:29:00Z,28.8850,-90.0250,27.9,1111122 
LOOP,urn:ioos:station:wmo:lopl1:1,2017-07-02T00:30:00Z,28.8850,-90.0250,24.2,1111122 
LOOP,urn:ioos:station:wmo:lopl1:1,2017-07-02T00:45:00Z,28.8850,-90.0250,23.9,1111122 
LOOP,urn:ioos:station:wmo:lopl1:1,2017-07-02T01:00:00Z,28.8850,-90.0250,24.2,1111122 
LOOP,urn:ioos:station:wmo:lopl1:1,2017-07-02T01:15:00Z,28.8850,-90.0250,23.9,1111122 
LOOP,urn:ioos:station:wmo:lopl1:1,2017-07-02T01:29:00Z,28.8850,-90.0250,27.7,1111122 
LOOP,urn:ioos:station:wmo:lopl1:1,2017-07-02T01:30:00Z,28.8850,-90.0250,24.1,1111122 
LOOP,urn:ioos:station:wmo:lopl1:1,2017-07-02T01:45:00Z,28.8850,-90.0250,24.7,1111122 
LOOP,urn:ioos:station:wmo:lopl1:1,2017-07-02T02:00:00Z,28.8850,-90.0250,23.8,1111122 
LOOP,urn:ioos:station:wmo:lopl1:1,2017-07-02T02:15:00Z,28.8850,-90.0250,23.6,1111122 
LOOP,urn:ioos:station:wmo:lopl1:1,2017-07-02T02:29:00Z,28.8850,-90.0250,27.7,1111122 
LOOP,urn:ioos:station:wmo:lopl1:1,2017-07-02T02:30:00Z,28.8850,-90.0250,23.9,1111122 
LOOP,urn:ioos:station:wmo:lopl1:1,2017-07-02T02:45:00Z,28.8850,-90.0250,24.9,1111122 
LOOP,urn:ioos:station:wmo:lopl1:1,2017-07-02T03:00:00Z,28.8850,-90.0250,25.6,1111122 
LOOP,urn:ioos:station:wmo:lopl1:1,2017-07-02T03:15:00Z,28.8850,-90.0250,25.8,1111122 
LOOP,urn:ioos:station:wmo:lopl1:1,2017-07-02T03:29:00Z,28.8850,-90.0250,27.8,1111122 
LOOP,urn:ioos:station:wmo:lopl1:1,2017-07-02T03:30:00Z,28.8850,-90.0250,25.7,1111122 
LOOP,urn:ioos:station:wmo:lopl1:1,2017-07-02T03:45:00Z,28.8850,-90.0250,25.8,1111122 
LOOP,urn:ioos:station:wmo:lopl1:1,2017-07-02T04:00:00Z,28.8850,-90.0250,24.1,1111122 
LOOP,urn:ioos:station:wmo:lopl1:1,2017-07-02T04:15:00Z,28.8850,-90.0250,23.7,1111122 
LOOP,urn:ioos:station:wmo:lopl1:1,2017-07-02T04:29:00Z,28.8850,-90.0250,27.5,1111122 
LOOP,urn:ioos:station:wmo:lopl1:1,2017-07-02T04:30:00Z,28.8850,-90.0250,24.0,1111122 
LOOP,urn:ioos:station:wmo:lopl1:1,2017-07-02T04:45:00Z,28.8850,-90.0250,24.1,1111122 
LOOP,urn:ioos:station:wmo:lopl1:1,2017-07-02T05:00:00Z,28.8850,-90.0250,24.4,1111122 
LOOP,urn:ioos:station:wmo:lopl1:1,2017-07-02T05:15:00Z,28.8850,-90.0250,25.2,1111122 
LOOP,urn:ioos:station:wmo:lopl1:1,2017-07-02T05:29:00Z,28.8850,-90.0250,27.4,1111122 
LOOP,urn:ioos:station:wmo:lopl1:1,2017-07-02T05:30:00Z,28.8850,-90.0250,25.5,1111122 
LOOP,urn:ioos:station:wmo:lopl1:1,2017-07-02T05:45:00Z,28.8850,-90.0250,25.7,1111122 
LOOP,urn:ioos:station:wmo:lopl1:1,2017-07-02T06:00:00Z,28.8850,-90.0250,25.7,1111122 
LOOP,urn:ioos:station:wmo:lopl1:1,2017-07-02T06:15:00Z,28.8850,-90.0250,24.7,1111122 
LOOP,urn:ioos:station:wmo:lopl1:1,2017-07-02T06:29:00Z,28.8850,-90.0250,27.3,1111122 
LOOP,urn:ioos:station:wmo:lopl1:1,2017-07-02T06:30:00Z,28.8850,-90.0250,24.5,1111122 
LOOP,urn:ioos:station:wmo:lopl1:1,2017-07-02T06:45:00Z,28.8850,-90.0250,24.0,1111122 
LOOP,urn:ioos:station:wmo:lopl1:1,2017-07-02T07:00:00Z,28.8850,-90.0250,23.9,1111122 
LOOP,urn:ioos:station:wmo:lopl1:1,2017-07-02T07:15:00Z,28.8850,-90.0250,24.0,1111122 
LOOP,urn:ioos:station:wmo:lopl1:1,2017-07-02T07:29:00Z,28.8850,-90.0250,27.2,1111122 
LOOP,urn:ioos:station:wmo:lopl1:1,2017-07-02T07:30:00Z,28.8850,-90.0250,24.1,1111122 
LOOP,urn:ioos:station:wmo:lopl1:1,2017-07-02T07:45:00Z,28.8850,-90.0250,24.4,1111122 
LOOP,urn:ioos:station:wmo:lopl1:1,2017-07-02T08:00:00Z,28.8850,-90.0250,23.8,1111122 
LOOP,urn:ioos:station:wmo:lopl1:1,2017-07-02T08:15:00Z,28.8850,-90.0250,24.1,1111122 
LOOP,urn:ioos:station:wmo:lopl1:1,2017-07-02T08:29:00Z,28.8850,-90.0250,27.2,1111122 
LOOP,urn:ioos:station:wmo:lopl1:1,2017-07-02T08:30:00Z,28.8850,-90.0250,23.9,1111122 
LOOP,urn:ioos:station:wmo:lopl1:1,2017-07-02T08:45:00Z,28.8850,-90.0250,23.8,1111122 
LOOP,urn:ioos:station:wmo:lopl1:1,2017-07-02T09:00:00Z,28.8850,-90.0250,23.7,1111122 
LOOP,urn:ioos:station:wmo:lopl1:1,2017-07-02T09:15:00Z,28.8850,-90.0250,23.5,1111122 
LOOP,urn:ioos:station:wmo:lopl1:1,2017-07-02T09:29:00Z,28.8850,-90.0250,27.4,1111122 
LOOP,urn:ioos:station:wmo:lopl1:1,2017-07-02T09:30:00Z,28.8850,-90.0250,23.5,1111122 
LOOP,urn:ioos:station:wmo:lopl1:1,2017-07-02T09:45:00Z,28.8850,-90.0250,23.6,1111122 
LOOP,urn:ioos:station:wmo:lopl1:1,2017-07-02T10:00:00Z,28.8850,-90.0250,23.7,1111122 
LOOP,urn:ioos:station:wmo:lopl1:1,2017-07-02T10:15:00Z,28.8850,-90.0250,23.2,1111122 
LOOP,urn:ioos:station:wmo:lopl1:1,2017-07-02T10:29:00Z,28.8850,-90.0250,27.3,1111122 
LOOP,urn:ioos:station:wmo:lopl1:1,2017-07-02T10:30:00Z,28.8850,-90.0250,23.4,1111122 
LOOP,urn:ioos:station:wmo:lopl1:1,2017-07-02T10:45:00Z,28.8850,-90.0250,23.3,1111122 
LOOP,urn:ioos:station:wmo:lopl1:1,2017-07-02T11:00:00Z,28.8850,-90.0250,23.4,1111122 
LOOP,urn:ioos:station:wmo:lopl1:1,2017-07-02T11:15:00Z,28.8850,-90.0250,23.5,1111122 
LOOP,urn:ioos:station:wmo:lopl1:1,2017-07-02T11:29:00Z,28.8850,-90.0250,27.5,1111122 
LOOP,urn:ioos:station:wmo:lopl1:1,2017-07-02T11:30:00Z,28.8850,-90.0250,23.3,1111122 
LOOP,urn:ioos:station:wmo:lopl1:1,2017-07-02T11:45:00Z,28.8850,-90.0250,23.7,1111122 
LOOP,urn:ioos:station:wmo:lopl1:1,2017-07-02T12:00:00Z,28.8850,-90.0250,23.7,1111122 
LOOP,urn:ioos:station:wmo:lopl1:1,2017-07-02T12:15:00Z,28.8850,-90.0250,23.9,1111122 
LOOP,urn:ioos:station:wmo:lopl1:1,2017-07-02T12:29:00Z,28.8850,-90.0250,28.0,1111122 
LOOP,urn:ioos:station:wmo:lopl1:1,2017-07-02T12:30:00Z,28.8850,-90.0250,24.2,1111122 
LOOP,urn:ioos:station:wmo:lopl1:1,2017-07-02T12:45:00Z,28.8850,-90.0250,24.7,1111122 
LOOP,urn:ioos:station:wmo:lopl1:1,2017-07-02T13:00:00Z,28.8850,-90.0250,25.0,1111122 
LOOP,urn:ioos:station:wmo:lopl1:1,2017-07-02T13:15:00Z,28.8850,-90.0250,25.5,1111122 
LOOP,urn:ioos:station:wmo:lopl1:1,2017-07-02T13:29:00Z,28.8850,-90.0250,28.8,1111122 
LOOP,urn:ioos:station:wmo:lopl1:1,2017-07-02T13:30:00Z,28.8850,-90.0250,25.8,1111122 
LOOP,urn:ioos:station:wmo:lopl1:1,2017-07-02T13:45:00Z,28.8850,-90.0250,26.0,1111122 
LOOP,urn:ioos:station:wmo:lopl1:1,2017-07-02T14:00:00Z,28.8850,-90.0250,26.4,1111122 
LOOP,urn:ioos:station:wmo:lopl1:1,2017-07-02T14:15:00Z,28.8850,-90.0250,26.6,1111122 
LOOP,urn:ioos:station:wmo:lopl1:1,2017-07-02T14:29:00Z,28.8850,-90.0250,28.9,1111122 
LOOP,urn:ioos:station:wmo:lopl1:1,2017-07-02T14:30:00Z,28.8850,-90.0250,27.1,1111122 
LOOP,urn:ioos:station:wmo:lopl1:1,2017-07-02T14:45:00Z,28.8850,-90.0250,27.4,1111122 
LOOP,urn:ioos:station:wmo:lopl1:1,2017-07-02T15:00:00Z,28.8850,-90.0250,27.8,1111122 
LOOP,urn:ioos:station:wmo:lopl1:1,2017-07-02T15:15:00Z,28.8850,-90.0250,28.3,1111122 
LOOP,urn:ioos:station:wmo:lopl1:1,2017-07-02T15:29:00Z,28.8850,-90.0250,29.7,1111122 
LOOP,urn:ioos:station:wmo:lopl1:1,2017-07-02T15:30:00Z,28.8850,-90.0250,28.4,1111122 
LOOP,urn:ioos:station:wmo:lopl1:1,2017-07-02T15:45:00Z,28.8850,-90.0250,28.6,1111122 
LOOP,urn:ioos:station:wmo:lopl1:1,2017-07-02T16:00:00Z,28.8850,-90.0250,28.6,1111122 
LOOP,urn:ioos:station:wmo:lopl1:1,2017-07-02T16:15:00Z,28.8850,-90.0250,28.8,1111122 
LOOP,urn:ioos:station:wmo:lopl1:1,2017-07-02T16:29:00Z,28.8850,-90.0250,30.0,1111122 
LOOP,urn:ioos:station:wmo:lopl1:1,2017-07-02T16:30:00Z,28.8850,-90.0250,29.0,1111122 
LOOP,urn:ioos:station:wmo:lopl1:1,2017-07-02T16:45:00Z,28.8850,-90.0250,29.3,1111122 
LOOP,urn:ioos:station:wmo:lopl1:1,2017-07-02T17:00:00Z,28.8850,-90.0250,29.5,1111122 
LOOP,urn:ioos:station:wmo:lopl1:1,2017-07-02T17:15:00Z,28.8850,-90.0250,29.9,1111122 
LOOP,urn:ioos:station:wmo:lopl1:1,2017-07-02T17:30:00Z,28.8850,-90.0250,29.8,1111122 
LOOP,urn:ioos:station:wmo:lopl1:1,2017-07-02T17:45:00Z,28.8850,-90.0250,30.1,1111122 
LOOP,urn:ioos:station:wmo:lopl1:1,2017-07-02T18:00:00Z,28.8850,-90.0250,30.2,1111122 
LOOP,urn:ioos:station:wmo:lopl1:1,2017-07-02T18:15:00Z,28.8850,-90.0250,30.4,1111122 
LOOP,urn:ioos:station:wmo:lopl1:1,2017-07-02T18:30:00Z,28.8850,-90.0250,30.2,1111122 
LOOP,urn:ioos:station:wmo:lopl1:1,2017-07-02T18:45:00Z,28.8850,-90.0250,30.3,1111122 
LOOP,urn:ioos:station:wmo:lopl1:1,2017-07-02T19:00:00Z,28.8850,-90.0250,30.4,1111122 
LOOP,urn:ioos:station:wmo:lopl1:1,2017-07-02T19:15:00Z,28.8850,-90.0250,30.7,1111122 
LOOP,urn:ioos:station:wmo:lopl1:1,2017-07-02T19:30:00Z,28.8850,-90.0250,30.9,1111122 
LOOP,urn:ioos:station:wmo:lopl1:1,2017-07-02T19:45:00Z,28.8850,-90.0250,30.6,1111122 
LOOP,urn:ioos:station:wmo:lopl1:1,2017-07-02T20:00:00Z,28.8850,-90.0250,30.5,1111122 
LOOP,urn:ioos:station:wmo:lopl1:1,2017-07-02T20:15:00Z,28.8850,-90.0250,30.8,1111122 
LOOP,urn:ioos:station:wmo:lopl1:1,2017-07-02T20:30:00Z,28.8850,-90.0250,30.6,1111122 
LOOP,urn:ioos:station:wmo:lopl1:1,2017-07-02T20:45:00Z,28.8850,-90.0250,30.8,1111122 
LOOP,urn:ioos:station:wmo:lopl1:1,2017-07-02T21:00:00Z,28.8850,-90.0250,31.1,1111122 
LOOP,urn:ioos:station:wmo:lopl1:1,2017-07-02T21:15:00Z,28.8850,-90.0250,31.1,1111122 
LOOP,urn:ioos:station:wmo:lopl1:1,2017-07-02T21:30:00Z,28.8850,-90.0250,31.0,1111122 
LOOP,urn:ioos:station:wmo:lopl1:1,2017-07-02T21:45:00Z,28.8850,-90.0250,29.7,1111122 
LOOP,urn:ioos:station:wmo:lopl1:1,2017-07-02T22:00:00Z,28.8850,-90.0250,29.8,1111122 
LOOP,urn:ioos:station:wmo:lopl1:1,2017-07-02T22:15:00Z,28.8850,-90.0250,28.7,1111122 
LOOP,urn:ioos:station:wmo:lopl1:1,2017-07-02T22:30:00Z,28.8850,-90.0250,28.4,1111122 
LOOP,urn:ioos:station:wmo:lopl1:1,2017-07-02T22:45:00Z,28.8850,-90.0250,28.7,1111122 
LOOP,urn:ioos:station:wmo:lopl1:1,2017-07-02T22:50:00Z,28.8850,-90.0250,29.3,1111122 
LOOP,urn:ioos:station:wmo:lopl1:1,2017-07-02T23:00:00Z,28.8850,-90.0250,27.1,1111122 
LOOP,urn:ioos:station:wmo:lopl1:1,2017-07-02T23:15:00Z,28.8850,-90.0250,28.0,1111122 
LOOP,urn:ioos:station:wmo:lopl1:1,2017-07-02T23:30:00Z,28.8850,-90.0250,27.1,1111122 
LOOP,urn:ioos:station:wmo:lopl1:1,2017-07-02T23:45:00Z,28.8850,-90.0250,27.4,1111122 
LOOP,urn:ioos:station:wmo:lopl1:1,2017-07-02T23:50:00Z,28.8850,-90.0250,29.2,1111122 
LOOP,urn:ioos:station:wmo:lopl1:1,2017-07-03T00:00:00Z,28.8850,-90.0250,26.5,1111122 
LOOP,urn:ioos:station:wmo:lopl1:1,2017-07-03T00:15:00Z,28.8850,-90.0250,26.6,1111122 
LOOP,urn:ioos:station:wmo:lopl1:1,2017-07-03T00:30:00Z,28.8850,-90.0250,26.0,1111122 
LOOP,urn:ioos:station:wmo:lopl1:1,2017-07-03T00:45:00Z,28.8850,-90.0250,26.6,1111122 
LOOP,urn:ioos:station:wmo:lopl1:1,2017-07-03T00:50:00Z,28.8850,-90.0250,29.2,1111122 
LOOP,urn:ioos:station:wmo:lopl1:1,2017-07-03T01:00:00Z,28.8850,-90.0250,26.9,1111122 
LOOP,urn:ioos:station:wmo:lopl1:1,2017-07-03T01:15:00Z,28.8850,-90.0250,26.7,1111122 
LOOP,urn:ioos:station:wmo:lopl1:1,2017-07-03T01:30:00Z,28.8850,-90.0250,26.8,1111122 
LOOP,urn:ioos:station:wmo:lopl1:1,2017-07-03T01:45:00Z,28.8850,-90.0250,26.3,1111122 
LOOP,urn:ioos:station:wmo:lopl1:1,2017-07-03T01:50:00Z,28.8850,-90.0250,29.1,1111122 
LOOP,urn:ioos:station:wmo:lopl1:1,2017-07-03T02:00:00Z,28.8850,-90.0250,26.5,1111122 
LOOP,urn:ioos:station:wmo:lopl1:1,2017-07-03T02:15:00Z,28.8850,-90.0250,26.7,1111122 
LOOP,urn:ioos:station:wmo:lopl1:1,2017-07-03T02:30:00Z,28.8850,-90.0250,27.0,1111122 
LOOP,urn:ioos:station:wmo:lopl1:1,2017-07-03T02:45:00Z,28.8850,-90.0250,26.8,1111122 
LOOP,urn:ioos:station:wmo:lopl1:1,2017-07-03T02:50:00Z,28.8850,-90.0250,28.9,1111122 
LOOP,urn:ioos:station:wmo:lopl1:1,2017-07-03T03:00:00Z,28.8850,-90.0250,26.8,1111122 
LOOP,urn:ioos:station:wmo:lopl1:1,2017-07-03T03:15:00Z,28.8850,-90.0250,27.0,1111122 
LOOP,urn:ioos:station:wmo:lopl1:1,2017-07-03T03:30:00Z,28.8850,-90.0250,26.8,1111122 
LOOP,urn:ioos:station:wmo:lopl1:1,2017-07-03T03:45:00Z,28.8850,-90.0250,26.9,1111122 
LOOP,urn:ioos:station:wmo:lopl1:1,2017-07-03T03:50:00Z,28.8850,-90.0250,29.0,1111122 
LOOP,urn:ioos:station:wmo:lopl1:1,2017-07-03T04:00:00Z,28.8850,-90.0250,26.8,1111122 
LOOP,urn:ioos:station:wmo:lopl1:1,2017-07-03T04:15:00Z,28.8850,-90.0250,26.6,1111122 
LOOP,urn:ioos:station:wmo:lopl1:1,2017-07-03T04:30:00Z,28.8850,-90.0250,26.6,1111122 
LOOP,urn:ioos:station:wmo:lopl1:1,2017-07-03T04:45:00Z,28.8850,-90.0250,26.7,1111122 
LOOP,urn:ioos:station:wmo:lopl1:1,2017-07-03T04:50:00Z,28.8850,-90.0250,28.4,1111122 
LOOP,urn:ioos:station:wmo:lopl1:1,2017-07-03T05:00:00Z,28.8850,-90.0250,26.9,1111122 
LOOP,urn:ioos:station:wmo:lopl1:1,2017-07-03T05:15:00Z,28.8850,-90.0250,26.8,1111122 
LOOP,urn:ioos:station:wmo:lopl1:1,2017-07-03T05:30:00Z,28.8850,-90.0250,26.4,1111122 
LOOP,urn:ioos:station:wmo:lopl1:1,2017-07-03T05:45:00Z,28.8850,-90.0250,26.4,1111122 
LOOP,urn:ioos:station:wmo:lopl1:1,2017-07-03T05:50:00Z,28.8850,-90.0250,28.1,1111122 
LOOP,urn:ioos:station:wmo:lopl1:1,2017-07-03T06:00:00Z,28.8850,-90.0250,26.2,1111122 
LOOP,urn:ioos:station:wmo:lopl1:1,2017-07-03T06:15:00Z,28.8850,-90.0250,26.7,1111122 
LOOP,urn:ioos:station:wmo:lopl1:1,2017-07-03T06:30:00Z,28.8850,-90.0250,26.8,1111122 
LOOP,urn:ioos:station:wmo:lopl1:1,2017-07-03T06:45:00Z,28.8850,-90.0250,26.8,1111122 
LOOP,urn:ioos:station:wmo:lopl1:1,2017-07-03T06:50:00Z,28.8850,-90.0250,27.9,1111122 
LOOP,urn:ioos:station:wmo:lopl1:1,2017-07-03T07:00:00Z,28.8850,-90.0250,26.8,1111122 
LOOP,urn:ioos:station:wmo:lopl1:1,2017-07-03T07:15:00Z,28.8850,-90.0250,27.0,1111122 
LOOP,urn:ioos:station:wmo:lopl1:1,2017-07-03T07:30:00Z,28.8850,-90.0250,27.0,1111122 
LOOP,urn:ioos:station:wmo:lopl1:1,2017-07-03T07:45:00Z,28.8850,-90.0250,27.0,1111122 
LOOP,urn:ioos:station:wmo:lopl1:1,2017-07-03T07:50:00Z,28.8850,-90.0250,27.9,1111122 
LOOP,urn:ioos:station:wmo:lopl1:1,2017-07-03T08:00:00Z,28.8850,-90.0250,26.8,1111122 
LOOP,urn:ioos:station:wmo:lopl1:1,2017-07-03T08:15:00Z,28.8850,-90.0250,26.7,1111122 
LOOP,urn:ioos:station:wmo:lopl1:1,2017-07-03T08:30:00Z,28.8850,-90.0250,26.6,1111122 